Location: Unspecified
(42.3650°N, 71.1030°W)
Time: 14:44:05
(UTC+00:00)

SJ-6B - Pass Details

Date: 27 June 2024
Orbit: 489 x 545 km, 97.4° (Epoch: 23 July)

Event Time Altitude Azimuth Distance (km) Brightness Sun altitude
Rises 01:00:09 0° 206° (SSW) 2,563 6.1 -6.0°
Reaches altitude 10° 01:02:51 10° 229° (SW) 1,695 5.4 -6.4°
Maximum altitude 01:05:08 16° 268° (W) 1,382 5.6 -6.7°
Drops below altitude 10° 01:07:28 10° 307° (NW) 1,722 7.2 -7.0°
Sets 01:10:15 0° 330° (NNW) 2,627 7.9 -7.4°
